{"data":{"norad_id":55916,"intl_designator":"2023-037C","name":"STARLINK-5796","alt_names":[],"object_type":"PAYLOAD","status":"ACTIVE","operator":null,"country":"US","launch_date":"2023-03-17","launch_site_code":"AFWTR","launch_vehicle":null,"mission":null,"orbit_class":"UNKNOWN","rcs_meters":null,"size_class":null,"mass_kg":null,"dimensions":null,"purposes":["comms"],"wikipedia_slug":null,"has_3d_model":false,"image_url":null,"decayed_at":null,"tle_current":{"epoch":"2026-09-20T11:49:16.836672Z","epoch_age_seconds":103763,"freshness":"FRESH","line1":"1 55916U 23037C   26263.49255598  .00000332  00000+0  35580-4 0  9999","line2":"2 55916  70.0005 173.4158 0002935 269.1868  90.8954 14.98329465192668","mean_motion":14.98329465,"eccentricity":0.0002935,"inclination_deg":70.0005,"raan_deg":173.4158,"arg_perigee_deg":269.1868,"mean_anomaly_deg":90.8954,"bstar":3.558e-5,"rev_number":19266,"period_min":96.107033442074,"perigee_km":570.01766328921,"apogee_km":574.09742748735,"semimajor_km":6950.1945453883,"source":"CELESTRAK","updated_at":"2026-09-21T09:00:33.322579Z"}}}